TimeEST,TemperatureF,Dew PointF,Humidity,Sea Level PressureIn,VisibilityMPH,Wind Direction,Wind SpeedMPH,Gust SpeedMPH,PrecipitationIn,Events,Conditions,WindDirDegrees,DateUTC
12:53 AM,43.0,19.0,38,30.18,10.0,SE,3.5,-,N/A,,Clear,140,2013-11-15 05:53:00
1:53 AM,42.1,19.0,40,30.18,10.0,Calm,Calm,-,N/A,,Clear,0,2013-11-15 06:53:00
2:53 AM,36.0,21.0,55,30.19,10.0,Calm,Calm,-,N/A,,Clear,0,2013-11-15 07:53:00
3:53 AM,39.9,19.9,45,30.17,10.0,Calm,Calm,-,N/A,,Clear,0,2013-11-15 08:53:00
4:53 AM,39.9,19.9,45,30.18,10.0,Calm,Calm,-,N/A,,Clear,0,2013-11-15 09:53:00
5:53 AM,39.0,19.9,46,30.19,10.0,Calm,Calm,-,N/A,,Clear,0,2013-11-15 10:53:00
6:53 AM,39.9,19.0,43,30.19,10.0,South,3.5,-,N/A,,Clear,170,2013-11-15 11:53:00
7:53 AM,39.9,19.0,43,30.20,10.0,South,3.5,-,N/A,,Clear,170,2013-11-15 12:53:00
8:53 AM,44.1,21.9,42,30.20,10.0,South,4.6,-,N/A,,Clear,170,2013-11-15 13:53:00
9:53 AM,46.9,23.0,39,30.21,10.0,South,8.1,-,N/A,,Clear,190,2013-11-15 14:53:00
10:53 AM,50.0,27.0,41,30.21,10.0,South,6.9,-,N/A,,Clear,180,2013-11-15 15:53:00
11:53 AM,53.1,30.0,41,30.19,10.0,SW,9.2,-,N/A,,Scattered Clouds,220,2013-11-15 16:53:00
12:53 PM,54.0,34.0,47,30.16,10.0,SW,5.8,-,N/A,,Scattered Clouds,230,2013-11-15 17:53:00
1:53 PM,54.0,35.1,49,30.13,10.0,SSW,4.6,-,N/A,,Overcast,200,2013-11-15 18:53:00
2:53 PM,54.0,36.0,51,30.12,10.0,South,4.6,-,N/A,,Overcast,170,2013-11-15 19:53:00
3:53 PM,53.1,37.0,55,30.12,10.0,South,4.6,-,0.00,Rain,Light Rain,170,2013-11-15 20:53:00
4:53 PM,51.1,39.0,63,30.12,10.0,South,4.6,-,0.00,Rain,Light Rain,170,2013-11-15 21:53:00
5:53 PM,48.9,42.1,77,30.14,4.0,Calm,Calm,-,0.04,Rain,Heavy Rain,0,2013-11-15 22:53:00
6:53 PM,46.9,45.0,93,30.13,10.0,SE,4.6,-,0.07,,Overcast,140,2013-11-15 23:53:00
7:53 PM,46.9,45.0,93,30.14,10.0,Calm,Calm,-,N/A,,Overcast,0,2013-11-16 00:53:00
8:43 PM,46.4,44.6,93,30.14,6.0,Calm,Calm,-,0.00,Rain,Light Rain,0,2013-11-16 01:43:00
8:53 PM,46.9,45.0,93,30.15,7.0,SE,3.5,-,0.00,,Overcast,130,2013-11-16 01:53:00
9:50 PM,48.2,44.6,87,30.14,10.0,Calm,Calm,-,N/A,,Overcast,0,2013-11-16 02:50:00
9:53 PM,48.0,45.0,89,30.14,10.0,East,3.5,-,N/A,,Overcast,100,2013-11-16 02:53:00
10:28 PM,48.2,44.6,87,30.13,10.0,Calm,Calm,-,0.00,,Overcast,0,2013-11-16 03:28:00
10:35 PM,48.2,44.6,87,30.13,10.0,Calm,Calm,-,0.00,,Overcast,0,2013-11-16 03:35:00
10:53 PM,48.0,44.1,86,30.13,10.0,ESE,3.5,-,0.00,,Overcast,120,2013-11-16 03:53:00
11:53 PM,48.0,44.1,86,30.12,10.0,ESE,3.5,-,N/A,,Overcast,120,2013-11-16 04:53:00